Lexington Weather

Lexington, Massachusetts, USA

38°F
1/28/2023 10:28pm 
  • Lexington Conditions: Clear
  • Temperature: 37.9°F / 3.3°CColder 0.9°F than last hour.
  • Dew Point: 28.0°FIncreased 0.3°Fsince last hour.
  • Relative Humidity: 67%Increased 3.0% since last hour.
  • Wind: Calm, 10-min avg: Calm, gust: None
  • Barometer: 30.25 in Steady
  • Visibility: 10 miles
  • Rain Today: 0.00 in
  •   

Regional Weather Roundup
for Boston, MA

        
000
ASUS41 KBOX 260410
RWRBOX

REGIONAL WEATHER ROUNDUP
NATIONAL WEATHER SERVICE BOSTON/NORTON MA
1100 PM EST WED JAN 25 2023

NOTE:  "FAIR" INDICATES FEW OR NO CLOUDS BELOW 12,000 FEET WITH NO 
SIGNIFICANT WEATHER AND/OR OBSTRUCTIONS TO VISIBILITY.

MAZALL-260500-
EASTERN MASSACHUSETTS
  
CITY           SKY/WX    TMP DP  RH WIND       PRES   REMARKS
BOSTON         LGT RAIN  40  39  97 SE13      29.82F                  
BEVERLY        RAIN      39  38  96 SE12G25   29.83F FOG     WCI  32  
LAWRENCE       RAIN      37  35  92 E5        29.86F FOG              
BEDFORD        LGT RAIN  39  36  89 E9        29.80F FOG              
NORWOOD        RAIN      41  38  89 E3        29.79F FOG              
MARSHFIELD     LGT RAIN  43  41  93 SE13G24   29.81F                  
PLYMOUTH       LGT RAIN  47  44  90 SE16G24   29.78F                  
TAUNTON          N/A    N/A N/A N/A MISG      29.77F                  
NEW BEDFORD    RAIN      47  47 100 SE21G28   29.77F FOG              
$$

MAZALL-260500-
CAPE COD AND THE ISLANDS
  
CITY           SKY/WX    TMP DP  RH WIND       PRES   REMARKS
FALMOUTH       LGT RAIN  46  46 100 SE25G35   29.80F FOG              
HYANNIS        LGT RAIN  46  45  96 SE14G28   29.80F FOG              
CHATHAM        LGT RAIN  48  45  89 SE17G33   29.84F                  
PROVINCETOWN   RAIN      44  43  96 SE21G30   29.83F                  
NANTUCKET      LGT RAIN  48  46  93 SE29G38   29.82F FOG              
MARTHAS VNYRD  LGT RAIN  49  47  93 SE23G33   29.78F FOG              
$$
 
MAZALL-260500-
CENTRAL AND WESTERN MASSACHUSETTS
  
CITY           SKY/WX    TMP DP  RH WIND       PRES   REMARKS
WORCESTER      FRZ RAIN  33  31  92 E10       29.73F VSB 1/4 WCI  25  
FITCHBURG      LGT RAIN  33  30  88 CALM      29.81F FOG              
ORANGE         RAIN      34  31  88 E6        29.75F FOG     WCI  29  
SPRINGFIELD    RAIN      36  34  93 NE6       29.68F FOG     WCI  31  
WESTFIELD      MIX PCPN  32  31  96 NE5       29.69F FOG     WCI  27  
NORTH ADAMS    LGT RAIN  36  31  82 E28G45    29.63F WCI  23          
PITTSFIELD     RAIN      36  33  89 SE16G23   29.58F FOG     WCI  26  
$$
 
RIZALL-260500-
RHODE ISLAND
  
CITY           SKY/WX    TMP DP  RH WIND       PRES   REMARKS
PROVIDENCE     RAIN      45  45 100 SE10G22   29.75F FOG              
NEWPORT        RAIN      45  44  97 SE16G24   29.74F FOG              
BLOCK ISLAND   LGT RAIN  48  47  96 SE24G31   29.69F FOG              
SMITHFIELD     RAIN      39  39 100 SE12      29.75F FOG     WCI  32  
WESTERLY       RAIN      49  48  97 SE12G22   29.69F FOG              
$$
 
CTZALL-260500-
CONNECTICUT
  
CITY           SKY/WX    TMP DP  RH WIND       PRES   REMARKS
BRADLEY INTL   HVY RAIN  36  34  92 N7        29.69F FOG     WCI  30  
HARTFORD       HVY RAIN  39  37  92 N6        29.67F FOG              
BRIDGEPORT     RAIN      51  50  96 S16G23    29.60F                  
DANBURY        RAIN      47  43  86 E8        29.61F FOG              
GROTON         RAIN      50  47  89 E21G26    29.67F FOG              
NEW HAVEN      RAIN      49  48  97 E20G29    29.61F FOG              
CHESTER        HVY RAIN  48  48 100 SE12G17   29.65F                  
MERIDEN        HVY RAIN  43  41  93 VRB6      29.63F FOG              
WILLIMANTIC    RAIN      39  39 100 CALM      29.69F FOG              
OXFORD         RAIN      44  44 100 E10       29.62F FOG              
$$

MEZ002-015-021-024-NHZ003-005-008-011-012-014-VTZ005-008-260500-
NORTHERN NEW ENGLAND
  
CITY           SKY/WX    TMP DP  RH WIND       PRES   REMARKS
PORTLAND ME    LGT SNOW  34  33  96 SE12      29.94F FOG     WCI  25  
BANGOR ME      LGT SNOW  20  17  88 NE9       30.07F FOG     WCI   9  
CONCORD NH     RAIN      33  31  92 E8        29.84F FOG     WCI  26  
MANCHESTER NH  RAIN      35  32  88 VRB5      29.83F FOG     WCI  31  
NASHUA NH      LGT SNOW  33  33 100 E3        29.82F FOG              
PORTSMOUTH NH  LGT RAIN  38  36  94 E10       29.86F FOG     WCI  31  
JAFFREY NH     FRZ RAIN  34  31  88 VRB7      29.74F FOG     WCI  28  
KEENE NH       LGT SNOW  34  34 100 CALM      29.75F FOG              
BURLINGTON VT  LGT SNOW  31  28  89 SE10      29.74F FOG     WCI  22  
MT. WASHINGTON SNOW      14  14 100 SE64        N/A  VSB 0   WCI -14  
$$

NYZ052-076-260500-
EASTERN NEW YORK
  
CITY           SKY/WX    TMP DP  RH WIND       PRES   REMARKS
ALBANY         LGT RAIN  34  32  92 N5        29.64F FOG     WCI  30  
NEW YORK CITY  LGT RAIN  53  49  86 S25G45    29.52F                  
$$
 
ANZALL-260500-
MARINE OBSERVATIONS
  
STATION/POSITION TIME  TEMP    WIND        PRES    VSBY  WAVE
                       AIR SEA DIR/SP/G                  HT/PER
                 (UTC) (F)     (DEG/KT/KT) (MB)    (MI)  (FT/S)
BOSTON BUOY      0310                      1012.5F
BUZZARDS BAY     0300   45     120/ 27/ 29 1009.5F
NANTUCKET SOUND  0350   48 41  140/ 27/ 33 1009.2F         4/ 5
MASS BAY-STELLWA 0204   40 42  130/ 19/ 23 1014.7F  1 1/8  4/ 4
ISLE OF SHOALS   0300   39     120/ 22/ 26 1012.3F
S OF BLOCK IS    0356      44                N/A           8/ 6
$$

......................KEY.........................
  SKY/WX - SKY CONDITION/PRESENT WEATHER
  TMP    - TEMPERATURE IN FAHRENHEIT
  DWPT   - DEWPOINT IN FAHRENHEIT
  RH     - RELATIVE HUMIDITY IN PERCENT
  WIND   - DIRECTION AND SPEED IN MPH
  PRES   - MEAN SEA LEVEL PRESSURE IN INCHES OF HG
  WCI    - WIND CHILL INDEX
  VSB    - VISIBILITY IN MILES
  HX     - HEAT INDEX
  TC     - TEMPERATURE IN CELSIUS
  VRB    - VARIABLE WIND DIRECTION
  N/A    - NOT AVAILABLE
  
      

Other recent Regional Weather Roundups

Sat Jan 28, 10:10pm EST

Sat Jan 28, 9:10pm EST

Sat Jan 28, 8:10pm EST

Sat Jan 28, 7:10pm EST

Sat Jan 28, 6:10pm EST

Sat Jan 28, 5:10pm EST

Sat Jan 28, 4:10pm EST

Sat Jan 28, 3:10pm EST

Sat Jan 28, 2:10pm EST

Sat Jan 28, 1:10pm EST

Sat Jan 28, 12:10pm EST

Sat Jan 28, 11:10am EST

Sat Jan 28, 10:10am EST

Sat Jan 28, 9:10am EST

Sat Jan 28, 8:10am EST

Sat Jan 28, 7:10am EST

Sat Jan 28, 6:10am EST

Sat Jan 28, 5:10am EST

Sat Jan 28, 4:10am EST

Sat Jan 28, 3:10am EST

Sat Jan 28, 2:10am EST

Sat Jan 28, 1:10am EST

Sat Jan 28, 12:10am EST

Fri Jan 27, 11:10pm EST

Fri Jan 27, 10:10pm EST

Fri Jan 27, 9:10pm EST

Fri Jan 27, 8:10pm EST

Fri Jan 27, 7:10pm EST

Fri Jan 27, 6:10pm EST

Fri Jan 27, 5:10pm EST

Fri Jan 27, 4:10pm EST

Fri Jan 27, 3:10pm EST

Fri Jan 27, 2:10pm EST

Fri Jan 27, 1:10pm EST

Fri Jan 27, 12:10pm EST

Fri Jan 27, 11:10am EST

Fri Jan 27, 10:10am EST

Fri Jan 27, 9:10am EST

Fri Jan 27, 8:10am EST

Fri Jan 27, 7:10am EST

Fri Jan 27, 6:10am EST

Fri Jan 27, 5:10am EST

Fri Jan 27, 4:10am EST

Fri Jan 27, 3:10am EST

Fri Jan 27, 2:10am EST

Fri Jan 27, 1:10am EST

Fri Jan 27, 12:10am EST

Thu Jan 26, 11:10pm EST

Thu Jan 26, 10:10pm EST

Thu Jan 26, 9:10pm EST

Thu Jan 26, 8:10pm EST

Thu Jan 26, 7:10pm EST

Thu Jan 26, 6:10pm EST

Thu Jan 26, 5:10pm EST

Thu Jan 26, 4:10pm EST

Thu Jan 26, 3:10pm EST

Thu Jan 26, 2:10pm EST

Thu Jan 26, 1:10pm EST

Thu Jan 26, 12:10pm EST

Thu Jan 26, 11:10am EST

Thu Jan 26, 10:10am EST

Thu Jan 26, 9:10am EST

Thu Jan 26, 8:10am EST

Thu Jan 26, 7:10am EST

Thu Jan 26, 6:10am EST

Thu Jan 26, 5:10am EST

Thu Jan 26, 4:10am EST

Thu Jan 26, 3:10am EST

Thu Jan 26, 2:10am EST

Thu Jan 26, 1:10am EST

Thu Jan 26, 12:10am EST

Wed Jan 25, 10:10pm EST

Wed Jan 25, 9:10pm EST

Wed Jan 25, 8:10pm EST

Wed Jan 25, 7:10pm EST

Wed Jan 25, 6:10pm EST

Wed Jan 25, 5:10pm EST

Wed Jan 25, 4:10pm EST

Wed Jan 25, 3:10pm EST

Wed Jan 25, 2:10pm EST

Wed Jan 25, 1:10pm EST

Wed Jan 25, 12:10pm EST

Wed Jan 25, 11:10am EST

Wed Jan 25, 10:10am EST

Wed Jan 25, 9:10am EST

Wed Jan 25, 8:10am EST

Wed Jan 25, 7:10am EST

Wed Jan 25, 6:10am EST

Wed Jan 25, 5:10am EST

Wed Jan 25, 4:10am EST

Wed Jan 25, 3:10am EST

Wed Jan 25, 2:10am EST

Wed Jan 25, 1:10am EST

Wed Jan 25, 12:10am EST

Tue Jan 24, 11:10pm EST

Tue Jan 24, 10:10pm EST

Tue Jan 24, 9:10pm EST

Tue Jan 24, 8:10pm EST

Tue Jan 24, 7:10pm EST

Tue Jan 24, 6:10pm EST

Tue Jan 24, 5:10pm EST

Tue Jan 24, 4:10pm EST

Tue Jan 24, 3:10pm EST

Tue Jan 24, 2:10pm EST

Tue Jan 24, 1:10pm EST

Tue Jan 24, 12:10pm EST

Tue Jan 24, 11:10am EST

Tue Jan 24, 10:10am EST

Tue Jan 24, 9:10am EST

Tue Jan 24, 8:10am EST

Tue Jan 24, 7:10am EST

Tue Jan 24, 6:10am EST

Tue Jan 24, 5:10am EST

Tue Jan 24, 4:10am EST

Tue Jan 24, 3:10am EST

Tue Jan 24, 2:10am EST

Tue Jan 24, 1:10am EST

Tue Jan 24, 12:10am EST

Mon Jan 23, 11:10pm EST

Mon Jan 23, 10:10pm EST

Mon Jan 23, 9:10pm EST

Mon Jan 23, 8:10pm EST

Mon Jan 23, 7:10pm EST

Mon Jan 23, 6:10pm EST

Mon Jan 23, 5:10pm EST

Mon Jan 23, 4:10pm EST

Mon Jan 23, 3:10pm EST

Mon Jan 23, 2:10pm EST

Mon Jan 23, 1:10pm EST

Mon Jan 23, 12:10pm EST

Mon Jan 23, 11:10am EST

Mon Jan 23, 10:10am EST

Mon Jan 23, 9:10am EST

Mon Jan 23, 8:10am EST

Mon Jan 23, 7:10am EST

Mon Jan 23, 6:10am EST

Mon Jan 23, 5:10am EST

Mon Jan 23, 4:10am EST

Mon Jan 23, 3:10am EST

Mon Jan 23, 2:10am EST

Mon Jan 23, 1:10am EST

Mon Jan 23, 12:10am EST

Sun Jan 22, 11:10pm EST

Sun Jan 22, 10:10pm EST

Sun Jan 22, 9:10pm EST

Sun Jan 22, 8:10pm EST

Sun Jan 22, 7:10pm EST

Sun Jan 22, 6:10pm EST

Sun Jan 22, 5:10pm EST

Sun Jan 22, 4:10pm EST

Sun Jan 22, 3:10pm EST

Sun Jan 22, 2:10pm EST

Sun Jan 22, 1:10pm EST

Sun Jan 22, 12:10pm EST

Sun Jan 22, 11:10am EST

Sun Jan 22, 10:10am EST

Sun Jan 22, 9:10am EST

Sun Jan 22, 8:10am EST

Sun Jan 22, 7:10am EST

Sun Jan 22, 6:10am EST

Sun Jan 22, 5:10am EST

Sun Jan 22, 4:10am EST

Sun Jan 22, 3:10am EST

Sun Jan 22, 2:10am EST

Sun Jan 22, 1:10am EST

Sun Jan 22, 12:10am EST

Sat Jan 21, 11:10pm EST